Regional Weather Roundup
Issued by NWS Columbia, SC

Home | Current Version | Previous Version | Text Only | Print | Product List | Glossary On
Versions: 1 2 3 4 5 6 7 8 9 10 11 12 13 14 15 16 17 18 19 20 21 22 23 24 25 26 27 28
000
ASUS42 KCAE 201310
RWRCAE
REGIONAL WEATHER ROUNDUP
NATIONAL WEATHER SERVICE COLUMBIA SC
900 AM EDT FRI APR 20 2018

NOTE: "FAIR" INDICATES FEW OR NO CLOUDS BELOW 12,000 FEET WITH NO
SIGNIFICANT WEATHER AND/OR OBSTRUCTIONS TO VISIBILITY.

NOT ALL STATIONS ARE QUALITY CONTROLLED BY THE NATIONAL
WEATHER SERVICE. USE DATA WITH CAUTION...ESPECIALLY
DEWPOINT OBSERVATIONS.

SCZ001>056-GAZ040-063>065-077-201400-
...UPSTATE SOUTH CAROLINA...

CITY           SKY/WX    TMP DP  RH WIND       PRES   REMARKS
ANDERSON       FAIR      48  29  47 E13       30.37R
LIBERTY        FAIR      46  31  54 CALM      30.36R
SPARTANBURG    FAIR      45  30  57 SE3       30.38R
CLEMSON        FAIR      45  29  53 E5        30.38R
GREENVILLE     FAIR      49  27  42 E12       30.37R
GREENWOOD      FAIR      46  32  58 NE7       30.39R
GREER          FAIR      47  28  47 NE3       30.38R
ROCK HILL      FAIR      49  31  49 N6        30.37R
CHESTER        FAIR      46  30  53 NE7       30.38R
LAURENS        FAIR      45  32  61 E12       30.38R


...CENTRAL SOUTH CAROLINA...

CITY           SKY/WX    TMP DP  RH WIND       PRES   REMARKS
COLUMBIA APT   FAIR      52  31  44 NE10      30.37R
COLUMBIA OWENS FAIR      51  28  41 VRB5      30.38R
MCENTIRE ANGB  MOSUNNY   50  29  44 NE10G17   30.36R
ORANGEBURG     FAIR      50  29  44 NE13G20   30.36R
SUMTER SHAW    FAIR      50  30  46 NE12      30.34R
NEWBERRY       FAIR      46  32  57 E6        30.40R
AIKEN          FAIR      48  30  49 NE16      30.38R
BARNWELL       FAIR      50  28  43 NE13G21   30.35R
MANNING        FAIR      45  28  53 NE8       30.35R
CAMDEN         FAIR      50  30  46 NE8       30.37R
LANCASTER      FAIR      48  30  49 NE8       30.38R
WINNSBORO      FAIR      48  32  53 NE10      30.36R


...EASTERN AND COASTAL SOUTH CAROLINA...

CITY           SKY/WX    TMP DP  RH WIND       PRES   REMARKS
MYRTLE BEACH   FAIR      51  31  46 NE15      30.35R
N MYRTLE BCH   FAIR      52  31  44 NE10      30.33R
CONWAY         FAIR      50  32  50 N10       30.35R
MARION         FAIR      48  32  53 NE8       30.36S
HARTSVILLE     FAIR      50  30  46 NE8       30.36R
FLORENCE       FAIR      50  30  46 NE12      30.36R
DARLINGTON     FAIR      49  31  49 N8        30.37R
CHARLESTON APT FAIR      53  32  44 N15G25    30.31R
MOUNT PLEASANT FAIR      52  34  50 N8G16     30.31R
WALTERBORO     FAIR      50  30  46 NE13G26   30.34R
BEAUFORT       FAIR      53  35  50 NE16      30.32


...EASTERN GEORGIA...

CITY           SKY/WX    TMP DP  RH WIND       PRES   REMARKS
AUGUSTA BUSH F FAIR      52  30  43 NE15      30.36R
AUGUSTA DANIEL FAIR      52  29  41 NE14      30.36R
THOMSON        FAIR      49  30  47 SE12G21   30.41R
WASHINGTON     FAIR      46  32  57 NE8       30.36R
CLAXTON        FAIR      53  32  45 N18       30.31R
SYLVANIA       FAIR      52  34  50 NE16      30.33R
STATESBORO     FAIR      51  27  39 NE9G17    30.32R
SAVANNAH       PTSUNNY   53  33  46 NE15G23   30.30R


...SOUTHERN NORTH CAROLINA...

CITY           SKY/WX    TMP DP  RH WIND       PRES   REMARKS
CHARLOTTE      FAIR      50  31  48 N6        30.37R
MONROE         FAIR      48  32  53 NE7       30.36R
WADESBORO      FAIR      47  33  59 CALM      30.37R
ROCKINGHAM     FAIR      48  30  49 N6        30.36R
RUTHERFORDTON  FAIR      45  30  54 CALM      30.38R
ASHEVILLE      FAIR      45  25  45 NW21      30.34R

$$




USA.gov is the U.S. government's official web portal to all federal, state and local government web resources and services.